User: anonymous   Login
Location: ????????
(55.0808°N, 38.5463°E)
Time: 22:06:47
(UTC+00:00)
Language:

S3M - Orbit

View from above orbital plane
View from above orbital plane
View from above satellite
View from above satellite

Ground track
Ground track

The orbit data is extracted from the following two-line orbital elements,

1 12508U 81053B   24170.60673192  .00000085  00000-0  71432-4 0  9995
2 12508  82.9591  47.7601 0036071 249.9948 109.7324 13.76510791167177
Epoch (UTC): 18 June 2024 14:33:41
Eccentricity: 0.0036071
inclination: 82.9591°
perigee height: 950 km
apogee height: 1003 km
right ascension of ascending node: 47.7601°
argument of perigee: 249.9948°
revolutions per day: 13.76510791
mean anomaly at epoch: 109.7324°
orbit number at epoch: 16717

The dashed part of the orbit path shows where the satellite is in the earth's shadow,  

DLR